Location: Unspecified
(43.3830°N, 0.0000°E)
Time: 07:44:49
(UTC+00:00)

Explorer 7 - Pass Details

Date: 01 July 2019
Orbit: 485 x 680 km, 50.3° (Epoch: 22 July)

Event Time Altitude Azimuth Distance (km) Brightness Sun altitude
Rises 06:03:27 0° 248° (WSW) 2,630 9.7 15.6°
Reaches altitude 10° 06:05:36 10° 251° (WSW) 1,772 8.9 16.0°
Maximum altitude 06:09:37 67° 334° (NNW) 600 7.2 16.7°
Drops below altitude 10° 06:13:55 10° 58° (ENE) 1,897 11.4 17.4°
Sets 06:16:18 0° 61° (ENE) 2,835 12.0 17.8°
